Socorro, NM

7:24 AM MDT on October 18, 2017 (GMT -0600)
Socorro Municipal

Weather History for KONM - October, 2012

Change the Weather History Date:

Tuesday, October 2, 2012

  Actual Average Record
Temperature  
Mean Temperature 68 °F -  
Max Temperature 84 °F 81 °F 91 °F (2015)
Min Temperature 51 °F 45 °F 49 °F (2013)
Cooling Degree Days 2    
Growing Degree Days 18 (Base 50)    
Moisture  
Dew Point 38 °F    
Average Humidity 36    
Maximum Humidity 61    
Minimum Humidity 17    
Precipitation  
Precipitation 0.00 in - - ()
Sea Level Pressure  
Sea Level Pressure 30.10 in    
Wind  
Wind Speed 5 mph (South)    
Max Wind Speed 12 mph    
Max Gust Speed 17 mph    
Visibility 10 miles    
Events      
Averages and records for this station are not official NWS values.
T = Trace of Precipitation, MM = Missing Value Source: NWS Daily Summary

Daily Weather History Graph

Daily Weather History Graph

Search for Another Location

Airport or City:

Trip Planner

Search our weather history database for the weather conditions in past years. The results will help you decide how hot, cold, wet, or windy it might be!

Date:

Astronomy

Oct. 02, 2012 Rise Set
Actual Time 7:03 AM MDT 6:49 PM MDT
Civil Twilight 6:38 AM MDT 7:14 PM MDT
Nautical Twilight 6:09 AM MDT 7:43 PM MDT
Astronomical Twilight 5:40 AM MDT 8:12 PM MDT
Moon 8:14 PM MDT (10/2) 9:24 AM MDT (10/2)
Length of Visible Light 12h 36m
Length of Day
11h 46m
Waning Gibbous, 94% of the Moon is Illuminated
Oct 2
Waning Gibbous
Oct 8
Last Quarter
Oct 15
New
Oct 21
First Quarter
Oct 29
Full

Hourly Weather History & Observations

Time (MDT) Temp. Dew Point Humidity Pressure Visibility Wind Dir Wind Speed Gust Speed Precip Events Conditions
12:15 AM 61.0 °F 35.1 °F 38% 30.17 in 10.0 mi Calm Calm - N/A   Clear
12:35 AM 59.4 °F 34.7 °F 40% 30.17 in 10.0 mi WSW 4.6 mph - N/A   Clear
12:55 AM 59.7 °F 35.1 °F 40% 30.17 in 10.0 mi SW 4.6 mph - N/A   Clear
1:15 AM 58.3 °F 34.9 °F 41% 30.17 in 10.0 mi SSW 6.9 mph - N/A   Clear
1:55 AM 57.4 °F 36.0 °F 45% 30.17 in 10.0 mi SW 6.9 mph - N/A   Clear
2:15 AM 57.2 °F 36.5 °F 46% 30.17 in 10.0 mi SW 8.1 mph - N/A   Clear
2:35 AM 57.7 °F 36.7 °F 45% 30.18 in 10.0 mi South 4.6 mph - N/A   Clear
2:55 AM 57.7 °F 36.9 °F 46% 30.17 in 10.0 mi South 3.5 mph - N/A   Clear
3:15 AM 56.1 °F 37.2 °F 49% 30.17 in 10.0 mi South 6.9 mph - N/A   Clear
3:55 AM 55.0 °F 37.4 °F 51% 30.17 in 10.0 mi SSW 6.9 mph - N/A   Clear
4:35 AM 54.3 °F 36.9 °F 52% 30.17 in 10.0 mi SSW 6.9 mph - N/A   Clear
4:55 AM 56.1 °F 38.1 °F 51% 30.16 in 10.0 mi South 8.1 mph - N/A   Clear
5:15 AM 58.1 °F 38.7 °F 48% 30.17 in 10.0 mi South 8.1 mph - N/A   Clear
5:35 AM 56.7 °F 38.7 °F 51% 30.17 in 10.0 mi South 5.8 mph - N/A   Clear
5:55 AM 54.9 °F 38.5 °F 54% 30.17 in 10.0 mi South 5.8 mph - N/A   Clear
6:15 AM 52.5 °F 38.3 °F 58% 30.17 in 10.0 mi South 4.6 mph - N/A   Clear
6:35 AM 52.0 °F 38.3 °F 60% 30.17 in 10.0 mi South 5.8 mph - N/A   Clear
6:55 AM 51.8 °F 38.3 °F 60% 30.17 in 10.0 mi South 5.8 mph - N/A   Clear
7:15 AM 52.0 °F 38.7 °F 60% 30.18 in 10.0 mi SSW 5.8 mph - N/A   Clear
7:35 AM 52.3 °F 39.2 °F 61% 30.18 in 10.0 mi SW 4.6 mph - N/A   Clear
7:55 AM 55.6 °F 40.5 °F 57% 30.18 in 10.0 mi SW 3.5 mph - N/A   Clear
8:15 AM 59.0 °F 41.5 °F 52% 30.18 in 10.0 mi SSE 4.6 mph - N/A   Clear
8:35 AM 59.4 °F 41.5 °F 52% 30.19 in 10.0 mi SSE 6.9 mph - N/A   Clear
8:55 AM 60.6 °F 41.4 °F 49% 30.19 in 10.0 mi SSE 5.8 mph - N/A   Clear
9:15 AM 62.2 °F 41.7 °F 47% 30.19 in 10.0 mi SE 5.8 mph - N/A   Clear
9:35 AM 63.9 °F 41.5 °F 44% 30.20 in 10.0 mi SSE 3.5 mph - N/A   Clear
10:15 AM 68.2 °F 42.8 °F 40% 30.19 in 10.0 mi SSE 6.9 mph - N/A   Clear
10:35 AM 70.0 °F 43.2 °F 38% 30.19 in 10.0 mi SE 9.2 mph - N/A   Clear
10:55 AM 70.5 °F 42.8 °F 37% 30.17 in 10.0 mi SE 9.2 mph - N/A   Clear
11:15 AM 70.9 °F 42.8 °F 36% 30.17 in 10.0 mi SE 9.2 mph 17.3 mph N/A   Clear
11:35 AM 73.4 °F 42.3 °F 33% 30.15 in 10.0 mi ESE 8.1 mph - N/A   Clear
11:55 AM 74.7 °F 41.2 °F 30% 30.14 in 10.0 mi SE 8.1 mph - N/A   Clear
12:15 PM 76.1 °F 41.4 °F 29% 30.13 in 10.0 mi SE 9.2 mph - N/A   Clear
12:35 PM 76.8 °F 40.8 °F 27% 30.13 in 10.0 mi SE 11.5 mph - N/A   Clear
12:55 PM 77.7 °F 40.3 °F 26% 30.11 in 10.0 mi ESE 8.1 mph - N/A   Clear
1:15 PM 79.0 °F 39.4 °F 24% 30.10 in 10.0 mi SE 6.9 mph - N/A   Clear
1:35 PM 80.2 °F 39.0 °F 23% 30.08 in 10.0 mi SSE 5.8 mph - N/A   Clear
1:55 PM 80.6 °F 38.7 °F 22% 30.07 in 10.0 mi SE 5.8 mph - N/A   Clear
2:15 PM 81.5 °F 38.1 °F 21% 30.06 in 10.0 mi ESE 3.5 mph - N/A   Clear
2:35 PM 81.0 °F 37.8 °F 21% 30.05 in 10.0 mi East 5.8 mph - N/A   Clear
2:55 PM 82.8 °F 37.6 °F 20% 30.04 in 10.0 mi SE 5.8 mph - N/A   Clear
3:15 PM 82.6 °F 37.2 °F 20% 30.04 in 10.0 mi SE 4.6 mph - N/A   Clear
3:35 PM 83.1 °F 36.7 °F 19% 30.03 in 10.0 mi Calm Calm - N/A   Clear
3:55 PM 83.5 °F 36.5 °F 19% 30.02 in 10.0 mi ESE 5.8 mph - N/A   Clear
4:15 PM 83.3 °F 36.0 °F 18% 30.01 in 10.0 mi Calm Calm - N/A   Clear
4:35 PM 84.4 °F 34.5 °F 17% 30.00 in 10.0 mi South 8.1 mph - N/A   Clear
4:55 PM 83.7 °F 35.1 °F 18% 30.00 in 10.0 mi SE 9.2 mph - N/A   Clear
5:15 PM 83.8 °F 34.2 °F 17% 29.99 in 10.0 mi SE 8.1 mph - N/A   Clear
5:35 PM 83.3 °F 33.8 °F 17% 29.99 in 10.0 mi SE 5.8 mph - N/A   Clear
5:55 PM 82.8 °F 33.8 °F 17% 29.99 in 10.0 mi SSE 9.2 mph - N/A   Clear
6:15 PM 81.5 °F 35.8 °F 19% 29.99 in 10.0 mi SE 5.8 mph - N/A   Clear
6:35 PM 79.7 °F 35.6 °F 20% 29.99 in 10.0 mi SSE 5.8 mph - N/A   Clear
6:55 PM 76.5 °F 36.1 °F 23% 30.00 in 10.0 mi SSE 5.8 mph - N/A   Clear
7:15 PM 73.6 °F 35.6 °F 25% 30.00 in 10.0 mi South 4.6 mph - N/A   Clear
7:35 PM 70.9 °F 34.7 °F 26% 30.00 in 10.0 mi SSW 6.9 mph - N/A   Clear
7:55 PM 71.8 °F 34.7 °F 26% 30.01 in 10.0 mi SSW 8.1 mph - N/A   Clear
8:15 PM 69.8 °F 35.1 °F 28% 30.01 in 10.0 mi SSW 8.1 mph - N/A   Clear
8:35 PM 69.6 °F 35.4 °F 28% 30.02 in 10.0 mi SSW 9.2 mph - N/A   Clear
8:55 PM 70.5 °F 36.5 °F 29% 30.02 in 10.0 mi SW 9.2 mph - N/A   Clear
9:15 PM 69.6 °F 36.9 °F 30% 30.02 in 10.0 mi West 3.5 mph - N/A   Clear
9:35 PM 66.2 °F 37.6 °F 35% 30.02 in 10.0 mi SE 3.5 mph - N/A   Clear
9:55 PM 63.5 °F 37.2 °F 38% 30.02 in 10.0 mi South 4.6 mph - N/A   Clear
10:15 PM 63.5 °F 36.3 °F 36% 30.03 in 10.0 mi SW 8.1 mph - N/A   Clear
10:35 PM 64.6 °F 36.5 °F 35% 30.03 in 10.0 mi South 5.8 mph - N/A   Clear
10:55 PM 65.3 °F 33.6 °F 31% 30.03 in 10.0 mi South 4.6 mph - N/A   Clear
11:15 PM 61.7 °F 32.4 °F 33% 30.03 in 10.0 mi SW 4.6 mph - N/A   Clear
11:35 PM 62.2 °F 32.2 °F 32% 30.02 in 10.0 mi South 4.6 mph - N/A   Clear
11:55 PM 59.9 °F 31.8 °F 35% 30.02 in 10.0 mi WSW 3.5 mph - N/A   Clear